| time (UTC) | temp F | wind direction | speed knots | gust knots | rain 1hr in | rain 24hr in | rain mn in | humidity % | barometer mb |
| 20260506032502 | 52 | 203 | 5.2 | 0.0 | 0.00 | 0.00 | 0.04 | 86 | 1007.1 |
| 20260506031002 | 52 | 180 | 1.7 | 0.0 | 0.00 | 0.00 | 0.04 | 87 | 1007.1 |
| 20260506025502 | 53 | 225 | 6.1 | 0.0 | 0.00 | 0.00 | 0.04 | 84 | 1006.8 |
| 20260506022501 | 54 | 203 | 3.5 | 0.0 | 0.00 | 0.00 | 0.04 | 85 | 1006.8 |
| 20260506021001 | 55 | 225 | 6.1 | 0.0 | 0.00 | 0.00 | 0.04 | 81 | 1006.8 |
| 20260506015501 | 56 | 203 | 3.5 | 0.0 | 0.00 | 0.00 | 0.04 | 78 | 1006.4 |
| 20260506014001 | 56 | 203 | 5.2 | 0.0 | 0.00 | 0.00 | 0.04 | 77 | 1006.4 |
| 20260506012502 | 58 | 225 | 5.2 | 0.0 | 0.00 | 0.00 | 0.04 | 72 | 1006.1 |
| 20260506011002 | 60 | 248 | 4.3 | 0.0 | 0.00 | 0.00 | 0.04 | 69 | 1005.4 |
| 20260506005502 | 62 | 270 | 4.3 | 0.0 | 0.00 | 0.00 | 0.04 | 63 | 1004.7 |
| 20260506004502 | 62 | 203 | 1.7 | 0.0 | 0.00 | 0.00 | 0.04 | 62 | 1004.7 |
| 20260506003001 | 63 | 225 | 1.7 | 0.0 | 0.00 | 0.00 | 0.04 | 60 | 1004.4 |
| 20260506001502 | 63 | 248 | 2.6 | 0.0 | 0.00 | 0.00 | 0.04 | 59 | 1003.7 |
| 20260505235002 | 64 | 225 | 5.2 | 0.0 | 0.00 | 0.00 | 0.04 | 59 | 1003.4 |
| 20260505233502 | 64 | 180 | 4.3 | 0.0 | 0.00 | 0.00 | 0.04 | 59 | 1003.4 |
| 20260505232502 | 65 | 225 | 6.1 | 0.0 | 0.00 | 0.00 | 0.04 | 60 | 1003.0 |
| 20260505231002 | 65 | 225 | 4.3 | 0.0 | 0.00 | 0.00 | 0.04 | 63 | 1003.0 |
| 20260505225502 | 65 | 225 | 2.6 | 0.0 | 0.00 | 0.00 | 0.04 | 68 | 1002.7 |
| 20260505224002 | 66 | 225 | 2.6 | 0.0 | 0.00 | 0.00 | 0.04 | 63 | 1002.4 |
| 20260505223002 | 66 | 180 | 3.5 | 0.0 | 0.00 | 0.00 | 0.04 | 62 | 1002.0 |
| 20260505221501 | 67 | 293 | 4.3 | 0.0 | 0.00 | 0.00 | 0.04 | 62 | 1002.0 |
| 20260505220001 | 68 | 225 | 6.1 | 0.0 | 0.00 | 0.00 | 0.04 | 63 | 1001.4 |
| 20260505214502 | 68 | 270 | 5.2 | 0.0 | 0.00 | 0.00 | 0.04 | 65 | 1001.4 |
| 20260505211502 | 70 | 225 | 2.6 | 0.0 | 0.00 | 0.00 | 0.04 | 63 | 1000.7 |
| 20260505210002 | 71 | 203 | 6.1 | 0.0 | 0.00 | 0.00 | 0.04 | 61 | 1000.3 |
| 20260505204502 | 73 | 203 | 7.0 | 0.0 | 0.00 | 0.00 | 0.04 | 57 | 999.7 |
| 20260505203002 | 73 | 225 | 5.2 | 0.0 | 0.00 | 0.00 | 0.04 | 59 | 999.7 |
| 20260505201502 | 72 | 225 | 7.0 | 0.0 | 0.00 | 0.00 | 0.04 | 63 | 1000.0 |
| 20260505200501 | 71 | 225 | 7.0 | 0.0 | 0.00 | 0.00 | 0.04 | 65 | 1000.0 |
| 20260505195001 | 68 | 203 | 5.2 | 0.0 | 0.00 | 0.00 | 0.04 | 70 | 1000.0 |
| 20260505193502 | 68 | 203 | 8.7 | 0.0 | 0.00 | 0.00 | 0.04 | 71 | 1000.0 |
| 20260505192002 | 68 | 180 | 12.2 | 0.0 | 0.00 | 0.00 | 0.04 | 69 | 999.7 |
| 20260505190502 | 70 | 225 | 4.3 | 0.0 | 0.00 | 0.00 | 0.04 | 64 | 999.3 |
| 20260505185002 | 70 | 203 | 7.0 | 0.0 | 0.00 | 0.00 | 0.04 | 63 | 999.7 |
| 20260505183501 | 70 | 180 | 3.5 | 0.0 | 0.00 | 0.00 | 0.04 | 63 | 1000.0 |
| 20260505182002 | 69 | 203 | 3.5 | 0.0 | 0.00 | 0.00 | 0.04 | 64 | 1000.0 |
| 20260505180502 | 69 | 203 | 7.0 | 0.0 | 0.00 | 0.00 | 0.04 | 66 | 1000.0 |
| 20260505175002 | 67 | 203 | 5.2 | 0.0 | 0.00 | 0.00 | 0.04 | 70 | 999.7 |
| 20260505174002 | 66 | 158 | 4.3 | 0.0 | 0.00 | 0.00 | 0.04 | 73 | 999.7 |
| 20260505171002 | 64 | 180 | 3.5 | 0.0 | 0.03 | 0.00 | 0.04 | 75 | 999.7 |
| 20260505165503 | 63 | 203 | 6.1 | 0.0 | 0.03 | 0.00 | 0.04 | 75 | 999.7 |
| 20260505164502 | 63 | 180 | 2.6 | 0.0 | 0.03 | 0.00 | 0.04 | 78 | 999.7 |
| 20260505161502 | 67 | 203 | 4.3 | 0.0 | 0.00 | 0.00 | 0.01 | 66 | 999.7 |
| 20260505152001 | 66 | 225 | 4.3 | 0.0 | 0.00 | 0.00 | 0.01 | 66 | 1000.0 |
| 20260505124002 | 55 | 113 | 1.7 | 0.0 | 0.01 | 0.00 | 0.01 | 87 | 1002.0 |
| 20260505121002 | 58 | 180 | 7.0 | 0.0 | 0.00 | 0.00 | 0.00 | 72 | 1001.7 |
| 20260505115502 | 60 | 180 | 6.1 | 0.0 | 0.00 | 0.00 | 0.00 | 66 | 1001.4 |
| 20260505114501 | 60 | 203 | 7.0 | 0.0 | 0.00 | 0.00 | 0.00 | 65 | 1001.4 |
| 20260505113001 | 59 | 225 | 3.5 | 0.0 | 0.00 | 0.00 | 0.00 | 66 | 1001.4 |
| 20260505111502 | 59 | 203 | 8.7 | 0.0 | 0.00 | 0.00 | 0.00 | 67 | 1001.0 |
| 20260505101502 | 57 | 180 | 2.6 | 0.0 | 0.00 | 0.00 | 0.00 | 67 | 1000.7 |
| 20260505100002 | 57 | 113 | 7.0 | 0.0 | 0.00 | 0.00 | 0.00 | 68 | 1001.0 |
| 20260505094502 | 57 | 158 | 4.3 | 0.0 | 0.00 | 0.00 | 0.00 | 68 | 1001.0 |
| 20260505093002 | 56 | 203 | 3.5 | 0.0 | 0.00 | 0.00 | 0.00 | 69 | 1001.4 |
| 20260505091502 | 56 | 158 | 4.3 | 0.0 | 0.00 | 0.00 | 0.00 | 69 | 1001.4 |
| 20260505090002 | 56 | 158 | 5.2 | 0.0 | 0.00 | 0.00 | 0.00 | 69 | 1001.4 |
| 20260505084501 | 56 | 180 | 4.3 | 0.0 | 0.00 | 0.00 | 0.00 | 69 | 1001.4 |
| 20260505083002 | 55 | 180 | 1.7 | 0.0 | 0.00 | 0.00 | 0.00 | 69 | 1001.4 |
| 20260505081502 | 55 | 113 | 7.0 | 0.0 | 0.00 | 0.00 | 0.00 | 70 | 1001.4 |
| 20260505080002 | 55 | 180 | 3.5 | 0.0 | 0.00 | 0.00 | 0.00 | 70 | 1001.4 |
| 20260505073502 | 55 | 180 | 3.5 | 0.0 | 0.00 | 0.00 | 0.00 | 71 | 1001.4 |
| 20260505072002 | 55 | 180 | 2.6 | 0.0 | 0.00 | 0.00 | 0.00 | 70 | 1001.7 |
| 20260505070502 | 56 | 203 | 2.6 | 0.0 | 0.00 | 0.00 | 0.00 | 69 | 1001.4 |
| 20260505063502 | 57 | 135 | 4.3 | 0.0 | 0.00 | 0.00 | 0.00 | 67 | 1001.7 |
| 20260505055002 | 56 | 158 | 3.5 | 0.0 | 0.00 | 0.00 | 0.00 | 69 | 1001.7 |
| 20260505053502 | 56 | 180 | 4.3 | 0.0 | 0.00 | 0.00 | 0.00 | 69 | 1002.0 |
| 20260505052501 | 55 | 180 | 3.5 | 0.0 | 0.00 | 0.00 | 0.00 | 70 | 1002.0 |
| 20260505051002 | 56 | 180 | 2.6 | 0.0 | 0.00 | 0.00 | 0.00 | 70 | 1002.0 |
| 20260505041501 | 55 | 158 | 1.7 | 0.0 | 0.00 | 0.00 | 0.00 | 73 | 1002.4 |
| 20260505040001 | 55 | 135 | 3.5 | 0.0 | 0.00 | 0.00 | 0.00 | 75 | 1002.4 |